SPZNA EPKK-EPKK

Flight info

Callsign SPZNA
Flight time 0h 41m
Altitude 2000
Route DCT
Aircraft PA24/L-SDGRY/S

Departure

Time 2026-05-06 18:32
Airport Kraków John Paul II International Airport (EPKK)

Arrival

Time 2026-05-06 19:13
Airport Kraków John Paul II International Airport (EPKK)
Time Latitude Longitude Altitude Speed Heading
2026-05-06 17:59 50.07677 19.80012 794 ft 0 kts 348°
2026-05-06 18:03 50.07676 19.80012 794 ft 0 kts 348°
2026-05-06 18:17 50.07675 19.80012 794 ft 0 kts 348°
2026-05-06 18:22 50.07676 19.80012 794 ft 2 kts 348°
2026-05-06 18:22 50.07736 19.80033 794 ft 12 kts 78°
2026-05-06 18:22 50.07739 19.80063 794 ft 0 kts 76°
2026-05-06 18:24 50.07746 19.80108 794 ft 11 kts 78°
2026-05-06 18:24 50.07768 19.80270 794 ft 11 kts 77°
2026-05-06 18:24 50.07788 19.80337 795 ft 0 kts 27°
2026-05-06 18:25 50.07806 19.80350 795 ft 8 kts 359°
2026-05-06 18:25 50.07810 19.80349 795 ft 0 kts 334°
2026-05-06 18:26 50.07811 19.80348 795 ft 2 kts 334°
2026-05-06 18:26 50.07813 19.80347 795 ft 0 kts 336°
2026-05-06 18:26 50.07833 19.80339 795 ft 7 kts 349°
2026-05-06 18:27 50.07855 19.80333 795 ft 0 kts 346°
2026-05-06 18:28 50.07854 19.80333 795 ft 0 kts 346°
2026-05-06 18:30 50.07855 19.80332 795 ft 2 kts 346°
2026-05-06 18:30 50.07920 19.80310 794 ft 16 kts 348°
2026-05-06 18:30 50.08014 19.80218 794 ft 16 kts 265°
2026-05-06 18:31 50.08011 19.80198 795 ft 0 kts 257°
2026-05-06 18:32 50.08009 19.80179 795 ft 19 kts 256°
2026-05-06 18:32 50.07865 19.79163 857 ft 102 kts 259°
2026-05-06 18:32 50.07693 19.78042 1212 ft 105 kts 259°
2026-05-06 18:32 50.07519 19.76953 1501 ft 105 kts 258°
2026-05-06 18:33 50.07254 19.75918 1708 ft 106 kts 218°
2026-05-06 18:33 50.06783 19.75777 1787 ft 107 kts 164°
2026-05-06 18:33 50.06137 19.76131 1936 ft 95 kts 139°
2026-05-06 18:33 50.06007 19.77106 1895 ft 106 kts 72°
2026-05-06 18:34 50.06286 19.78207 1877 ft 111 kts 71°
2026-05-06 18:34 50.06555 19.79314 1938 ft 107 kts 76°
2026-05-06 18:34 50.06764 19.80433 1938 ft 109 kts 78°
2026-05-06 18:34 50.06954 19.81577 1947 ft 110 kts 79°
2026-05-06 18:35 50.07134 19.82734 1962 ft 110 kts 80°
2026-05-06 18:35 50.07293 19.83906 1951 ft 114 kts 84°
2026-05-06 18:35 50.07761 19.84862 1814 ft 122 kts 20°
2026-05-06 18:35 50.08563 19.84759 1830 ft 115 kts
2026-05-06 18:36 50.08968 19.85627 1869 ft 107 kts 104°
2026-05-06 18:36 50.08445 19.86267 1866 ft 104 kts 184°
2026-05-06 18:36 50.07931 19.85566 1838 ft 108 kts 259°
2026-05-06 18:36 50.08420 19.84895 1766 ft 117 kts 13°
2026-05-06 18:37 50.08746 19.85883 1715 ft 112 kts 117°
2026-05-06 18:37 50.08127 19.86018 1697 ft 112 kts 232°
2026-05-06 18:37 50.08350 19.84909 1619 ft 114 kts 307°
2026-05-06 18:37 50.08488 19.83832 1684 ft 111 kts 264°
2026-05-06 18:38 50.08338 19.82576 1447 ft 126 kts 256°
2026-05-06 18:38 50.08139 19.81228 1132 ft 129 kts 259°
2026-05-06 18:38 50.07959 19.79859 835 ft 127 kts 259°
2026-05-06 18:38 50.07787 19.78626 819 ft 108 kts 259°
2026-05-06 18:39 50.07624 19.77486 911 ft 114 kts 258°
2026-05-06 18:39 50.07474 19.76383 1482 ft 95 kts 260°
2026-05-06 18:39 50.07079 19.75607 1658 ft 99 kts 193°
2026-05-06 18:40 50.05715 19.76046 1929 ft 102 kts 144°
2026-05-06 18:40 50.05607 19.77131 1864 ft 112 kts 75°
2026-05-06 18:40 50.05824 19.78250 1937 ft 107 kts 79°
2026-05-06 18:40 50.06008 19.79375 1943 ft 106 kts 79°
2026-05-06 18:41 50.06191 19.80487 1946 ft 107 kts 81°
2026-05-06 18:41 50.06343 19.81626 1951 ft 107 kts 83°
2026-05-06 18:41 50.06485 19.82767 1945 ft 108 kts 81°
2026-05-06 18:41 50.06665 19.83911 1953 ft 108 kts 80°
2026-05-06 18:42 50.06840 19.85052 1960 ft 109 kts 81°
2026-05-06 18:42 50.07012 19.86195 1977 ft 107 kts 81°
2026-05-06 18:42 50.07176 19.87329 1988 ft 108 kts 82°
2026-05-06 18:42 50.07586 19.88287 1827 ft 121 kts 22°
2026-05-06 18:43 50.08402 19.88162 1814 ft 116 kts 347°
2026-05-06 18:43 50.08965 19.87467 1909 ft 104 kts 284°
2026-05-06 18:43 50.08884 19.86383 1836 ft 98 kts 254°
2026-05-06 18:43 50.08730 19.85308 1724 ft 106 kts 253°
2026-05-06 18:44 50.08554 19.84156 1556 ft 112 kts 255°
2026-05-06 18:44 50.08379 19.82970 1387 ft 108 kts 258°
2026-05-06 18:44 50.08242 19.81917 1191 ft 95 kts 259°
2026-05-06 18:44 50.08107 19.80925 987 ft 93 kts 259°
2026-05-06 18:45 50.07983 19.80025 813 ft 73 kts 260°
2026-05-06 18:45 50.07884 19.79313 797 ft 84 kts 259°
2026-05-06 18:45 50.07749 19.78293 955 ft 104 kts 261°
2026-05-06 18:45 50.07581 19.77230 1394 ft 98 kts 255°
2026-05-06 18:46 50.07145 19.76494 1685 ft 97 kts 190°
2026-05-06 18:46 50.06469 19.76701 1918 ft 99 kts 163°
2026-05-06 18:46 50.05820 19.77014 1980 ft 98 kts 163°
2026-05-06 18:46 50.05438 19.77842 1947 ft 105 kts 94°
2026-05-06 18:47 50.05676 19.78978 1917 ft 113 kts 72°
2026-05-06 18:47 50.05957 19.80076 1989 ft 108 kts 72°
2026-05-06 18:47 50.06228 19.81169 2007 ft 109 kts 73°
2026-05-06 18:47 50.06496 19.82272 2040 ft 108 kts 74°
2026-05-06 18:48 50.06747 19.83405 2023 ft 115 kts 77°
2026-05-06 18:48 50.06952 19.84569 2091 ft 108 kts 81°
2026-05-06 18:48 50.07129 19.85717 2072 ft 110 kts 78°
2026-05-06 18:48 50.07617 19.86582 1970 ft 120 kts 16°
2026-05-06 18:49 50.08459 19.86326 1846 ft 127 kts 327°
2026-05-06 18:49 50.08750 19.85193 1807 ft 115 kts 256°
2026-05-06 18:49 50.08572 19.83995 1605 ft 113 kts 253°
2026-05-06 18:49 50.08382 19.82865 1338 ft 97 kts 256°
2026-05-06 18:50 50.08251 19.81950 1160 ft 77 kts 258°
2026-05-06 18:50 50.08145 19.81166 1027 ft 77 kts 259°
2026-05-06 18:50 50.08025 19.80298 880 ft 80 kts 260°
2026-05-06 18:50 50.07925 19.79557 795 ft 57 kts 258°
2026-05-06 18:51 50.07801 19.78707 855 ft 96 kts 259°
2026-05-06 18:51 50.07648 19.77621 1184 ft 100 kts 260°
2026-05-06 18:51 50.07499 19.76572 1505 ft 102 kts 257°
2026-05-06 18:51 50.07035 19.75880 1723 ft 100 kts 181°
2026-05-06 18:52 50.06369 19.76177 1814 ft 97 kts 160°
2026-05-06 18:52 50.05775 19.76651 1885 ft 98 kts 130°
2026-05-06 18:52 50.05731 19.77721 1877 ft 110 kts 71°
2026-05-06 18:52 50.06012 19.78789 2008 ft 106 kts 71°
2026-05-06 18:53 50.05975 19.79834 2098 ft 99 kts 138°
2026-05-06 18:53 50.05339 19.79905 2016 ft 104 kts 223°
2026-05-06 18:53 50.05293 19.78805 1902 ft 119 kts 299°
2026-05-06 18:53 50.05341 19.77650 1985 ft 110 kts 242°
2026-05-06 18:54 50.04855 19.76835 2029 ft 102 kts 200°
2026-05-06 18:54 50.04166 19.76952 1963 ft 107 kts 145°
2026-05-06 18:54 50.03926 19.77984 1880 ft 115 kts 78°
2026-05-06 18:54 50.04203 19.79156 1916 ft 114 kts 79°
2026-05-06 18:55 50.04375 19.80309 2006 ft 104 kts 83°
2026-05-06 18:55 50.04740 19.81270 1818 ft 123 kts 22°
2026-05-06 18:55 50.05396 19.80724 1732 ft 120 kts 275°
2026-05-06 18:55 50.05200 19.79544 1814 ft 106 kts 250°
2026-05-06 18:56 50.05014 19.78437 1840 ft 105 kts 252°
2026-05-06 18:56 50.04853 19.77348 1879 ft 102 kts 253°
2026-05-06 18:56 50.04697 19.76280 1926 ft 100 kts 251°
2026-05-06 18:56 50.04277 19.75501 1911 ft 103 kts 191°
2026-05-06 18:57 50.03639 19.75929 1849 ft 108 kts 122°
2026-05-06 18:57 50.03640 19.77058 1854 ft 110 kts 71°
2026-05-06 18:57 50.03905 19.78171 1877 ft 109 kts 74°
2026-05-06 18:57 50.04149 19.79297 1879 ft 111 kts 76°
2026-05-06 18:58 50.04397 19.80409 1935 ft 106 kts 75°
2026-05-06 18:58 50.04886 19.81193 1853 ft 113 kts
2026-05-06 18:58 50.05471 19.80484 1808 ft 114 kts 280°
2026-05-06 18:58 50.05293 19.79327 1834 ft 105 kts 249°
2026-05-06 18:59 50.05085 19.78276 1872 ft 103 kts 249°
2026-05-06 18:59 50.04894 19.77201 1906 ft 101 kts 251°
2026-05-06 18:59 50.04726 19.76189 1992 ft 94 kts 249°
2026-05-06 18:59 50.04444 19.75269 2007 ft 96 kts 213°
2026-05-06 19:00 50.03796 19.75172 1965 ft 99 kts 158°
2026-05-06 19:00 50.03347 19.75967 1911 ft 105 kts 103°
2026-05-06 19:00 50.03595 19.77060 1905 ft 108 kts 66°
2026-05-06 19:00 50.03950 19.78052 1931 ft 109 kts 64°
2026-05-06 19:01 50.04342 19.79085 1952 ft 109 kts 67°
2026-05-06 19:01 50.04646 19.80150 1964 ft 109 kts 70°
2026-05-06 19:01 50.04965 19.81230 1970 ft 109 kts 60°
2026-05-06 19:01 50.05663 19.81287 1866 ft 115 kts 314°
2026-05-06 19:02 50.05563 19.80253 1792 ft 111 kts 225°
2026-05-06 19:02 50.05104 19.79408 1911 ft 98 kts 231°
2026-05-06 19:02 50.04816 19.78397 1858 ft 106 kts 250°
2026-05-06 19:02 50.04638 19.77337 1933 ft 100 kts 252°
2026-05-06 19:03 50.04479 19.76240 1909 ft 105 kts 253°
2026-05-06 19:03 50.04303 19.75166 1950 ft 102 kts 249°
2026-05-06 19:03 50.03890 19.74311 1930 ft 102 kts 198°
2026-05-06 19:03 50.03294 19.74618 1963 ft 102 kts 122°
2026-05-06 19:04 50.03387 19.75727 1933 ft 113 kts 63°
2026-05-06 19:04 50.03766 19.76742 1995 ft 110 kts 62°
2026-05-06 19:04 50.04214 19.77734 1986 ft 111 kts 59°
2026-05-06 19:04 50.04630 19.78747 2017 ft 111 kts 67°
2026-05-06 19:05 50.04919 19.79852 2029 ft 111 kts 74°
2026-05-06 19:05 50.05039 19.81020 1952 ft 118 kts 118°
2026-05-06 19:05 50.04316 19.81498 1849 ft 116 kts 191°
2026-05-06 19:05 50.03661 19.80939 1858 ft 113 kts 238°
2026-05-06 19:06 50.03739 19.79770 1757 ft 125 kts 314°
2026-05-06 19:06 50.04534 19.79165 1688 ft 128 kts 339°
2026-05-06 19:06 50.05309 19.79356 1810 ft 114 kts 40°
2026-05-06 19:06 50.05755 19.80353 1830 ft 110 kts 69°
2026-05-06 19:07 50.06010 19.81441 1871 ft 108 kts 77°
2026-05-06 19:07 50.06150 19.82190 1877 ft 108 kts 78°
2026-05-06 19:07 50.06388 19.83700 1919 ft 108 kts 78°
2026-05-06 19:07 50.06999 19.84357 1784 ft 118 kts 359°
2026-05-06 19:08 50.07766 19.83906 1692 ft 115 kts 334°
2026-05-06 19:08 50.08249 19.83107 1566 ft 96 kts 281°
2026-05-06 19:08 50.08268 19.82067 1196 ft 96 kts 262°
2026-05-06 19:08 50.08156 19.81044 1275 ft 96 kts 256°
2026-05-06 19:09 50.08006 19.80003 1450 ft 103 kts 255°
2026-05-06 19:09 50.07835 19.78930 1740 ft 102 kts 253°
2026-05-06 19:09 50.07672 19.77890 1992 ft 100 kts 252°
2026-05-06 19:09 50.07395 19.76898 1969 ft 103 kts 212°
2026-05-06 19:10 50.06718 19.76895 1964 ft 102 kts 160°
2026-05-06 19:10 50.06163 19.77501 1920 ft 107 kts 114°
2026-05-06 19:10 50.06311 19.78640 1921 ft 111 kts 69°
2026-05-06 19:10 50.06625 19.79718 1971 ft 109 kts 70°
2026-05-06 19:11 50.06914 19.80821 1976 ft 111 kts 74°
2026-05-06 19:11 50.07175 19.81955 1984 ft 111 kts 76°
2026-05-06 19:11 50.07406 19.83108 1991 ft 112 kts 80°
2026-05-06 19:11 50.07601 19.84286 1963 ft 110 kts 74°
2026-05-06 19:12 50.08248 19.84640 1705 ft 113 kts 335°
2026-05-06 19:12 50.08560 19.83808 1689 ft 77 kts 259°
2026-05-06 19:12 50.08439 19.82973 1365 ft 75 kts 250°
2026-05-06 19:12 50.08313 19.82260 1207 ft 61 kts 251°
2026-05-06 19:13 50.08218 19.81658 1103 ft 57 kts 254°
2026-05-06 19:13 50.08122 19.81018 1036 ft 72 kts 252°
2026-05-06 19:13 50.08006 19.80162 840 ft 78 kts 256°
2026-05-06 19:13 50.07916 19.79485 795 ft 46 kts 255°
2026-05-06 19:14 50.07866 19.79161 795 ft 22 kts 259°
2026-05-06 19:14 50.07799 19.79073 795 ft 10 kts 172°
2026-05-06 19:14 50.07720 19.79098 794 ft 15 kts 168°
2026-05-06 19:14 50.07673 19.79113 794 ft 0 kts 169°
2026-05-06 19:15 50.07649 19.79121 794 ft 10 kts 165°
2026-05-06 19:15 50.07629 19.79269 794 ft 19 kts 79°
2026-05-06 19:15 50.07664 19.79524 794 ft 28 kts 78°
2026-05-06 19:15 50.07701 19.79794 794 ft 15 kts 77°
2026-05-06 19:16 50.07634 19.79892 794 ft 14 kts 165°
2026-05-06 19:16 50.07620 19.80037 794 ft 15 kts 78°
2026-05-06 19:16 50.07675 19.80082 794 ft 11 kts 347°
2026-05-06 19:16 50.07687 19.80077 794 ft 0 kts 348°